Orbital Elements at Epoch 2459200.5 (2020-Dec-17.0) TDB
Reference: JPL 20 (heliocentric ecliptic J2000)
Element | Value | Uncertainty (1-sigma) | Units |
e | .1137664229826295 | 3.4409e-08 | |
a | 2.567920635794356 | 1.3261e-08 | au |
q | 2.275777490556753 | 8.6649e-08 | au |
i | 9.574674554444446 | 5.7219e-06 | deg |
node | 337.4143159215903 | 2.2428e-05 | deg |
peri | 92.91683922328551 | 3.6412e-05 | deg |
M | 205.0146659892952 | 2.8129e-05 | deg |
tp | 2459847.581413686423 (2022-Sep-25.08141369) | 0.00011946 | TDB |
period | 1503.040983936084 4.12 | 1.1642e-05 3.187e-08 | d yr |
n | .2395144269833887 | 1.8553e-09 | deg/d |
Q | 2.86006378103196 | 1.4769e-08 | au |
|
| | Orbit Determination Parameters
Additional Information
|